This is the latest recevied weather packets stored in our database for station/object WE1C. If no packets are shown the sender has not sent any weather packets the latest 10 day(s).
| Time | Temp. | Humidity | Pressure | Rain* | Wind** | Luminosity | Snow |
|---|---|---|---|---|---|---|---|
| 1777508574 | 8.89° C | 81% | 1041.1 hPa | 0 mm | - | 0 W/m² | - |
| 1777508272 | 9.44° C | 81% | 1041.1 hPa | 0 mm | - | 0 W/m² | - |
| 1777507969 | 9.44° C | 81% | 1041.1 hPa | 0 mm | - | 0 W/m² | - |
| 1777507665 | 9.44° C | 80% | 1040.8 hPa | 0 mm | - | 0 W/m² | - |
| 1777507362 | 9.44° C | 80% | 1040.8 hPa | 0 mm | - | 0 W/m² | - |
| 1777507060 | 10° C | 79% | 1040.9 hPa | 0 mm | - | 0 W/m² | - |
| 1777506758 | 10° C | 79% | 1041 hPa | 0 mm | - | 0 W/m² | - |
| 1777506453 | 10° C | 78% | 1040.9 hPa | 0 mm | - | 0 W/m² | - |
| 1777506149 | 10.56° C | 78% | 1040.9 hPa | 0 mm | - | 0 W/m² | - |
| 1777505845 | 10.56° C | 78% | 1040.8 hPa | 0 mm | - | 1 W/m² | - |
| 1777505542 | 10.56° C | 77% | 1040.9 hPa | 0 mm | - | 2 W/m² | - |
| 1777505238 | 10.56° C | 77% | 1040.9 hPa | 0 mm | - | 5 W/m² | - |
| 1777504935 | 11.11° C | 76% | 1041.2 hPa | 0 mm | - | 7 W/m² | - |
| 1777504632 | 11.11° C | 76% | 1040.9 hPa | 0 mm | - | 10 W/m² | - |
| 1777504329 | 11.11° C | 75% | 1041 hPa | 0 mm | - | 15 W/m² | - |
| 1777504023 | 11.67° C | 75% | 1040.7 hPa | 0 mm | - | 19 W/m² | - |
| 1777503721 | 11.67° C | 74% | 1040.6 hPa | 0 mm | - | 25 W/m² | - |
| 1777503418 | 11.67° C | 73% | 1040.8 hPa | 0 mm | - | 30 W/m² | - |
| 1777503113 | 12.22° C | 72% | 1040.4 hPa | 0 mm | - | 36 W/m² | - |
| 1777502811 | 12.78° C | 72% | 1041 hPa | 0 mm | - | 43 W/m² | - |
| 1777502508 | 12.78° C | 71% | 1040.8 hPa | 0 mm | - | 55 W/m² | - |
| 1777502205 | 12.78° C | 70% | 1040.8 hPa | 0 mm | - | 65 W/m² | - |
| 1777501902 | 13.33° C | 70% | 1040.8 hPa | 0 mm | - | 70 W/m² | - |
| 1777501599 | 13.33° C | 69% | 1040.7 hPa | 0 mm | - | 75 W/m² | - |
| 1777501296 | 13.89° C | 68% | 1040.7 hPa | 0 mm | - | 80 W/m² | - |
* Rain latest hour (hover to see other rain measurements)
** Current wind speed in m/s (hover to see current wind gust speed)